User: anonymous
Location: Prairie State College
(41.5244°N, 87.6382°W)
Time: 10:20:18
(UTC-05:00)
Language:

MSX - Orbit

View from above orbital plane
View from above orbital plane
View from above satellite
View from above satellite

Ground track
Ground track

The orbit data is extracted from the following two-line orbital elements,

1 23851U 96024A   14188.14184387 0.00000000  00000-0  00000-0 0    01
2 23851  98.7826 233.3884 0007000  54.1372 305.8627 13.97970359    05
Epoch (UTC): 07 July 2014 03:24:15
Eccentricity: 0.0007000
inclination: 98.7826°
perigee height: 896 km
apogee height: 906 km
right ascension of ascending node: 233.3884°
argument of perigee: 54.1372°
revolutions per day: 13.97970359
mean anomaly at epoch: 305.8627°
orbit number at epoch: 0

The dashed part of the orbit path shows where the satellite is in the earth's shadow,  

DLR